| time (UTC) | temp F | wind direction | speed MPH | gust MPH | rain 1hr in | rain 24hr in | rain mn in | humidity % | barometer mb |
| 20260505055829 | 52 | 336 | 1.0 | 2.0 | 0.00 | 0.00 | 0.00 | 64 | 1020.6 |
| 20260505055341 | 52 | 350 | 0.0 | 2.0 | 0.00 | 0.00 | 0.00 | 65 | 1020.5 |
| 20260505054819 | 52 | 350 | 0.0 | 1.0 | 0.00 | 0.00 | 0.00 | 65 | 1020.6 |
| 20260505054333 | 51 | 350 | 0.0 | 1.0 | 0.00 | 0.00 | 0.00 | 66 | 1020.5 |
| 20260505053827 | 51 | 350 | 0.0 | 2.0 | 0.00 | 0.00 | 0.00 | 66 | 1020.5 |
| 20260505053330 | 50 | 319 | 1.0 | 3.0 | 0.00 | 0.00 | 0.00 | 67 | 1020.6 |
| 20260505052823 | 50 | 267 | 1.0 | 3.0 | 0.00 | 0.00 | 0.00 | 67 | 1020.4 |
| 20260505052328 | 49 | 266 | 2.0 | 3.0 | 0.00 | 0.00 | 0.00 | 67 | 1020.5 |
| 20260505051822 | 49 | 261 | 1.0 | 3.0 | 0.00 | 0.00 | 0.00 | 66 | 1020.4 |
| 20260505051325 | 49 | 261 | 1.0 | 3.0 | 0.00 | 0.00 | 0.00 | 66 | 1020.5 |
| 20260505050820 | 50 | 113 | 0.0 | 0.0 | 0.00 | 0.00 | 0.00 | 68 | 1020.5 |
| 20260505050334 | 50 | 113 | 0.0 | 1.0 | 0.00 | 0.00 | 0.00 | 68 | 1020.5 |
| 20260505041316 | 47 | 113 | 0.0 | 0.0 | 0.00 | 0.00 | 0.00 | 72 | 1020.3 |
| 20260505040831 | 46 | 113 | 0.0 | 0.0 | 0.00 | 0.00 | 0.00 | 73 | 1020.2 |
| 20260505040343 | 46 | 113 | 0.0 | 0.0 | 0.00 | 0.00 | 0.00 | 73 | 1020.1 |
| 20260505035826 | 45 | 113 | 0.0 | 0.0 | 0.00 | 0.00 | 0.00 | 74 | 1020.1 |
| 20260505035342 | 45 | 113 | 0.0 | 1.0 | 0.00 | 0.00 | 0.00 | 73 | 1020.1 |
| 20260505034826 | 45 | 113 | 0.0 | 2.0 | 0.00 | 0.00 | 0.00 | 73 | 1020.1 |
| 20260505034341 | 45 | 113 | 0.0 | 3.0 | 0.00 | 0.00 | 0.00 | 74 | 1020.2 |
| 20260505033814 | 44 | 113 | 1.0 | 3.0 | 0.00 | 0.00 | 0.00 | 74 | 1020.0 |
| 20260505033320 | 44 | 113 | 2.0 | 2.0 | 0.00 | 0.00 | 0.00 | 75 | 1020.2 |
| 20260505032829 | 44 | 114 | 1.0 | 1.0 | 0.00 | 0.00 | 0.00 | 75 | 1020.2 |
| 20260505032321 | 44 | 114 | 1.0 | 2.0 | 0.00 | 0.00 | 0.00 | 74 | 1020.2 |
| 20260505031826 | 45 | 114 | 1.0 | 2.0 | 0.00 | 0.00 | 0.00 | 73 | 1020.1 |
| 20260505031318 | 45 | 114 | 0.0 | 1.0 | 0.00 | 0.00 | 0.00 | 73 | 1020.1 |
| 20260505030833 | 45 | 114 | 0.0 | 2.0 | 0.00 | 0.00 | 0.00 | 72 | 1020.1 |
| 20260505025832 | 45 | 114 | 0.0 | 2.0 | 0.00 | 0.00 | 0.00 | 72 | 1020.0 |
| 20260505025323 | 45 | 114 | 0.0 | 2.0 | 0.00 | 0.00 | 0.00 | 72 | 1020.0 |
| 20260505024848 | 45 | 114 | 0.0 | 0.0 | 0.00 | 0.00 | 0.00 | 71 | 1020.0 |
| 20260505024320 | 46 | 114 | 0.0 | 0.0 | 0.00 | 0.00 | 0.00 | 71 | 1020.1 |
| 20260505023832 | 46 | 114 | 0.0 | 0.0 | 0.00 | 0.00 | 0.00 | 70 | 1019.9 |
| 20260505023325 | 46 | 114 | 0.0 | 0.0 | 0.00 | 0.00 | 0.00 | 70 | 1019.9 |
| 20260505022832 | 46 | 114 | 0.0 | 1.0 | 0.00 | 0.00 | 0.00 | 70 | 1019.9 |
| 20260505022327 | 46 | 114 | 0.0 | 1.0 | 0.00 | 0.00 | 0.00 | 70 | 1020.0 |
| 20260505021814 | 46 | 114 | 0.0 | 1.0 | 0.00 | 0.00 | 0.00 | 70 | 1020.0 |
| 20260505021324 | 46 | 114 | 0.0 | 2.0 | 0.00 | 0.00 | 0.00 | 70 | 1020.2 |
| 20260505020830 | 46 | 114 | 0.0 | 3.0 | 0.00 | 0.00 | 0.00 | 70 | 1020.2 |
| 20260505020326 | 46 | 114 | 2.0 | 3.0 | 0.00 | 0.00 | 0.00 | 70 | 1020.2 |
| 20260505015818 | 46 | 114 | 0.0 | 0.0 | 0.00 | 0.00 | 0.00 | 70 | 1020.2 |
| 20260505015321 | 46 | 114 | 0.0 | 0.0 | 0.00 | 0.00 | 0.00 | 70 | 1020.1 |
| 20260505014827 | 46 | 114 | 0.0 | 0.0 | 0.00 | 0.00 | 0.00 | 70 | 1020.1 |
| 20260505014320 | 46 | 114 | 0.0 | 0.0 | 0.00 | 0.00 | 0.00 | 70 | 1020.1 |
| 20260505013832 | 46 | 114 | 0.0 | 0.0 | 0.00 | 0.00 | 0.00 | 70 | 1020.0 |
| 20260505013315 | 46 | 114 | 0.0 | 0.0 | 0.00 | 0.00 | 0.00 | 69 | 1020.0 |
| 20260505012832 | 47 | 114 | 0.0 | 0.0 | 0.00 | 0.00 | 0.00 | 69 | 1020.1 |
| 20260505012317 | 47 | 114 | 0.0 | 0.0 | 0.00 | 0.00 | 0.00 | 69 | 1020.0 |
| 20260505011833 | 47 | 114 | 0.0 | 0.0 | 0.00 | 0.00 | 0.00 | 68 | 1020.1 |
| 20260505011318 | 47 | 114 | 0.0 | 2.0 | 0.00 | 0.00 | 0.00 | 68 | 1020.2 |
| 20260505010833 | 47 | 114 | 0.0 | 2.0 | 0.00 | 0.00 | 0.00 | 68 | 1020.1 |
| 20260505010347 | 47 | 114 | 0.0 | 1.0 | 0.00 | 0.00 | 0.00 | 68 | 1020.2 |
| 20260505005840 | 47 | 114 | 0.0 | 1.0 | 0.00 | 0.00 | 0.00 | 68 | 1020.1 |
| 20260505005325 | 47 | 114 | 0.0 | 2.0 | 0.00 | 0.00 | 0.00 | 68 | 1020.1 |
| 20260505004830 | 47 | 114 | 0.0 | 2.0 | 0.00 | 0.00 | 0.00 | 68 | 1020.1 |
| 20260505004314 | 47 | 115 | 0.0 | 1.0 | 0.00 | 0.00 | 0.00 | 67 | 1020.0 |
| 20260505003843 | 47 | 115 | 0.0 | 1.0 | 0.00 | 0.00 | 0.00 | 67 | 1020.1 |
| 20260505003316 | 48 | 115 | 0.0 | 0.0 | 0.00 | 0.00 | 0.00 | 66 | 1020.1 |
| 20260505002821 | 48 | 115 | 0.0 | 1.0 | 0.00 | 0.00 | 0.00 | 66 | 1020.1 |
| 20260505002315 | 49 | 115 | 0.0 | 1.0 | 0.00 | 0.00 | 0.00 | 65 | 1020.1 |
| 20260505001821 | 48 | 115 | 0.0 | 0.0 | 0.00 | 0.00 | 0.00 | 65 | 1020.1 |
| 20260505001333 | 49 | 115 | 0.0 | 0.0 | 0.00 | 0.00 | 0.00 | 65 | 1020.1 |
| 20260505000829 | 49 | 115 | 0.0 | 1.0 | 0.00 | 0.00 | 0.00 | 64 | 1020.3 |
| 20260505000332 | 49 | 115 | 0.0 | 1.0 | 0.00 | 0.00 | 0.00 | 64 | 1020.2 |
| 20260504235825 | 50 | 115 | 0.0 | 1.0 | 0.00 | 0.00 | 0.00 | 63 | 1020.2 |
| 20260504235317 | 49 | 115 | 1.0 | 2.0 | 0.00 | 0.00 | 0.00 | 63 | 1020.2 |
| 20260504234824 | 49 | 115 | 0.0 | 0.0 | 0.00 | 0.00 | 0.00 | 64 | 1020.3 |
| 20260504234330 | 50 | 115 | 0.0 | 1.0 | 0.00 | 0.00 | 0.00 | 63 | 1020.2 |
| 20260504233824 | 50 | 115 | 0.0 | 1.0 | 0.00 | 0.00 | 0.00 | 63 | 1020.3 |
| 20260504233334 | 50 | 115 | 0.0 | 2.0 | 0.00 | 0.00 | 0.00 | 63 | 1020.4 |
| 20260504232848 | 50 | 115 | 1.0 | 2.0 | 0.00 | 0.00 | 0.00 | 63 | 1020.5 |
| 20260504232336 | 50 | 115 | 0.0 | 0.0 | 0.00 | 0.00 | 0.00 | 63 | 1020.5 |
| 20260504231821 | 51 | 115 | 0.0 | 4.0 | 0.00 | 0.00 | 0.00 | 62 | 1020.5 |
| 20260504231336 | 51 | 115 | 2.0 | 4.0 | 0.00 | 0.00 | 0.00 | 62 | 1020.5 |
| 20260504230819 | 50 | 98 | 2.0 | 6.0 | 0.00 | 0.00 | 0.00 | 63 | 1020.5 |
| 20260504230352 | 50 | 110 | 3.0 | 6.0 | 0.00 | 0.00 | 0.00 | 63 | 1020.6 |
| 20260504225822 | 50 | 98 | 2.0 | 6.0 | 0.00 | 0.00 | 0.00 | 64 | 1020.7 |
| 20260504225316 | 49 | 94 | 3.0 | 4.0 | 0.00 | 0.00 | 0.00 | 64 | 1020.7 |
| 20260504224842 | 49 | 113 | 1.0 | 3.0 | 0.00 | 0.00 | 0.00 | 65 | 1020.7 |
| 20260504224327 | 50 | 115 | 2.0 | 3.0 | 0.00 | 0.00 | 0.00 | 64 | 1020.8 |
| 20260504223821 | 49 | 267 | 1.0 | 2.0 | 0.00 | 0.00 | 0.00 | 64 | 1020.8 |
| 20260504223336 | 49 | 267 | 1.0 | 2.0 | 0.00 | 0.00 | 0.00 | 64 | 1020.8 |
| 20260504222821 | 49 | 267 | 0.0 | 3.0 | 0.00 | 0.00 | 0.00 | 64 | 1020.9 |
| 20260504222336 | 50 | 267 | 1.0 | 6.0 | 0.00 | 0.00 | 0.00 | 63 | 1020.9 |
| 20260504221821 | 51 | 261 | 3.0 | 6.0 | 0.00 | 0.00 | 0.00 | 62 | 1020.9 |
| 20260504221315 | 52 | 108 | 2.0 | 3.0 | 0.00 | 0.00 | 0.00 | 58 | 1020.9 |
| 20260504220818 | 53 | 108 | 0.0 | 3.0 | 0.00 | 0.00 | 0.00 | 57 | 1020.8 |
| 20260504220314 | 53 | 108 | 2.0 | 3.0 | 0.00 | 0.00 | 0.00 | 57 | 1020.7 |
| 20260504215840 | 53 | 108 | 1.0 | 3.0 | 0.00 | 0.00 | 0.00 | 58 | 1020.8 |
| 20260504215327 | 52 | 108 | 2.0 | 3.0 | 0.00 | 0.00 | 0.00 | 58 | 1020.8 |
| 20260504214814 | 52 | 107 | 2.0 | 3.0 | 0.00 | 0.00 | 0.00 | 59 | 1021.2 |
| 20260504214349 | 52 | 106 | 2.0 | 3.0 | 0.00 | 0.00 | 0.00 | 60 | 1020.8 |
| 20260504213814 | 52 | 106 | 0.0 | 1.0 | 0.00 | 0.00 | 0.00 | 60 | 1021.0 |
| 20260504213328 | 52 | 106 | 0.0 | 1.0 | 0.00 | 0.00 | 0.00 | 59 | 1021.0 |
| 20260504212844 | 53 | 106 | 1.0 | 1.0 | 0.00 | 0.00 | 0.00 | 58 | 1020.9 |
| 20260504212329 | 53 | 106 | 0.0 | 0.0 | 0.00 | 0.00 | 0.00 | 57 | 1020.8 |
| 20260504211825 | 53 | 106 | 0.0 | 1.0 | 0.00 | 0.00 | 0.00 | 57 | 1020.8 |
| 20260504211340 | 53 | 106 | 0.0 | 2.0 | 0.00 | 0.00 | 0.00 | 57 | 1020.8 |
| 20260504210824 | 53 | 106 | 0.0 | 3.0 | 0.00 | 0.00 | 0.00 | 57 | 1020.9 |
| 20260504210318 | 53 | 106 | 0.0 | 3.0 | 0.00 | 0.00 | 0.00 | 57 | 1020.9 |
| 20260504205834 | 53 | 103 | 1.0 | 2.0 | 0.00 | 0.00 | 0.00 | 58 | 1020.9 |
| 20260504205318 | 53 | 103 | 1.0 | 3.0 | 0.00 | 0.00 | 0.00 | 58 | 1020.9 |
| 20260504204849 | 53 | 103 | 2.0 | 3.0 | 0.00 | 0.00 | 0.00 | 58 | 1020.9 |
| 20260504204333 | 53 | 104 | 1.0 | 2.0 | 0.00 | 0.00 | 0.00 | 58 | 1020.9 |
| 20260504203829 | 53 | 103 | 1.0 | 2.0 | 0.00 | 0.00 | 0.00 | 59 | 1020.8 |
| 20260504203316 | 53 | 103 | 1.0 | 2.0 | 0.00 | 0.00 | 0.00 | 58 | 1020.9 |
| 20260504202850 | 53 | 103 | 1.0 | 2.0 | 0.00 | 0.00 | 0.00 | 59 | 1020.9 |
| 20260504202314 | 53 | 103 | 0.0 | 2.0 | 0.00 | 0.00 | 0.00 | 59 | 1020.9 |
| 20260504201830 | 54 | 103 | 1.0 | 2.0 | 0.00 | 0.00 | 0.00 | 57 | 1020.8 |
| 20260504201324 | 55 | 103 | 0.0 | 0.0 | 0.00 | 0.00 | 0.00 | 55 | 1020.8 |
| 20260504200830 | 55 | 103 | 0.0 | 0.0 | 0.00 | 0.00 | 0.00 | 55 | 1020.8 |
| 20260504200322 | 56 | 103 | 0.0 | 1.0 | 0.00 | 0.00 | 0.00 | 53 | 1020.8 |
| 20260504195828 | 56 | 103 | 0.0 | 2.0 | 0.00 | 0.00 | 0.00 | 52 | 1020.8 |
| 20260504195323 | 56 | 103 | 0.0 | 1.0 | 0.00 | 0.00 | 0.00 | 52 | 1020.8 |
| 20260504194829 | 56 | 103 | 0.0 | 1.0 | 0.00 | 0.00 | 0.00 | 52 | 1020.7 |
| 20260504194315 | 56 | 103 | 1.0 | 1.0 | 0.00 | 0.00 | 0.00 | 51 | 1020.8 |
| 20260504193828 | 57 | 103 | 0.0 | 1.0 | 0.00 | 0.00 | 0.00 | 51 | 1020.7 |
| 20260504193342 | 57 | 103 | 0.0 | 2.0 | 0.00 | 0.00 | 0.00 | 51 | 1020.7 |
| 20260504192835 | 57 | 103 | 0.0 | 3.0 | 0.00 | 0.00 | 0.00 | 51 | 1020.7 |
| 20260504192321 | 57 | 103 | 1.0 | 3.0 | 0.00 | 0.00 | 0.00 | 51 | 1020.7 |
| 20260504191850 | 57 | 103 | 1.0 | 2.0 | 0.00 | 0.00 | 0.00 | 51 | 1020.7 |
| 20260504191315 | 57 | 103 | 0.0 | 2.0 | 0.00 | 0.00 | 0.00 | 51 | 1020.7 |
| 20260504190830 | 57 | 103 | 0.0 | 2.0 | 0.00 | 0.00 | 0.00 | 51 | 1020.8 |
| 20260504190324 | 57 | 103 | 1.0 | 2.0 | 0.00 | 0.00 | 0.00 | 51 | 1020.6 |
| 20260504185816 | 57 | 103 | 0.0 | 2.0 | 0.00 | 0.00 | 0.00 | 50 | 1020.6 |
| 20260504185322 | 57 | 103 | 0.0 | 2.0 | 0.00 | 0.00 | 0.00 | 50 | 1020.7 |
| 20260504184828 | 57 | 103 | 0.0 | 1.0 | 0.00 | 0.00 | 0.00 | 50 | 1020.7 |
| 20260504184322 | 58 | 103 | 0.0 | 1.0 | 0.00 | 0.00 | 0.00 | 50 | 1020.5 |
| 20260504183836 | 58 | 103 | 0.0 | 3.0 | 0.00 | 0.00 | 0.00 | 50 | 1020.5 |
| 20260504183320 | 58 | 103 | 0.0 | 3.0 | 0.00 | 0.00 | 0.00 | 49 | 1020.4 |
| 20260504182815 | 59 | 111 | 1.0 | 3.0 | 0.00 | 0.00 | 0.00 | 48 | 1020.2 |
| 20260504182327 | 59 | 115 | 1.0 | 2.0 | 0.00 | 0.00 | 0.00 | 47 | 1020.2 |
| 20260504181841 | 59 | 115 | 1.0 | 3.0 | 0.00 | 0.00 | 0.00 | 47 | 1020.3 |
| 20260504181347 | 60 | 115 | 2.0 | 4.0 | 0.00 | 0.00 | 0.00 | 47 | 1020.1 |
| 20260504180822 | 60 | 111 | 2.0 | 6.0 | 0.00 | 0.00 | 0.00 | 47 | 1020.1 |
| 20260504180324 | 61 | 111 | 2.0 | 6.0 | 0.00 | 0.00 | 0.00 | 46 | 1020.1 |
| 20260504175819 | 61 | 113 | 2.0 | 4.0 | 0.00 | 0.00 | 0.00 | 45 | 1020.1 |
| 20260504175334 | 62 | 107 | 2.0 | 3.0 | 0.00 | 0.00 | 0.00 | 43 | 1020.1 |
| 20260504174831 | 63 | 113 | 2.0 | 3.0 | 0.00 | 0.00 | 0.00 | 42 | 1020.0 |
| 20260504174324 | 63 | 110 | 2.0 | 4.0 | 0.00 | 0.00 | 0.00 | 41 | 1020.0 |
| 20260504173819 | 64 | 107 | 3.0 | 6.0 | 0.00 | 0.00 | 0.00 | 40 | 1019.8 |
| 20260504173333 | 64 | 107 | 3.0 | 6.0 | 0.00 | 0.00 | 0.00 | 40 | 1019.9 |
| 20260504172816 | 65 | 101 | 2.0 | 4.0 | 0.00 | 0.00 | 0.00 | 40 | 1019.9 |
| 20260504172330 | 65 | 103 | 3.0 | 6.0 | 0.00 | 0.00 | 0.00 | 39 | 1019.7 |
| 20260504171814 | 65 | 107 | 3.0 | 4.0 | 0.00 | 0.00 | 0.00 | 39 | 1019.7 |
| 20260504171328 | 65 | 101 | 3.0 | 6.0 | 0.00 | 0.00 | 0.00 | 38 | 1019.7 |
| 20260504170823 | 65 | 92 | 3.0 | 8.0 | 0.00 | 0.00 | 0.00 | 37 | 1019.7 |
| 20260504170337 | 66 | 77 | 4.0 | 8.0 | 0.00 | 0.00 | 0.00 | 37 | 1019.6 |
| 20260504160356 | 67 | 30 | 3.0 | 8.0 | 0.00 | 0.00 | 0.00 | 36 | 1019.6 |
| 20260504150847 | 67 | 117 | 5.0 | 12.0 | 0.00 | 0.00 | 0.00 | 34 | 1020.0 |
| 20260504150332 | 67 | 100 | 8.0 | 12.0 | 0.00 | 0.00 | 0.00 | 35 | 1019.9 |
| 20260504141325 | 67 | 84 | 4.0 | 14.0 | 0.00 | 0.00 | 0.00 | 34 | 1020.2 |
| 20260504140819 | 67 | 63 | 8.0 | 14.0 | 0.00 | 0.00 | 0.00 | 32 | 1020.2 |
| 20260504140332 | 67 | 71 | 6.0 | 13.0 | 0.00 | 0.00 | 0.00 | 31 | 1020.3 |
| 20260504130322 | 66 | 51 | 5.0 | 12.0 | 0.00 | 0.00 | 0.00 | 38 | 1020.5 |
| 20260504110339 | 65 | 73 | 6.0 | 9.0 | 0.00 | 0.00 | 0.00 | 41 | 1021.3 |
| 20260504100326 | 60 | 302 | 5.0 | 11.0 | 0.00 | 0.00 | 0.00 | 45 | 1021.9 |
| 20260504081849 | 54 | 306 | 4.0 | 8.0 | 0.00 | 0.00 | 0.00 | 51 | 1022.5 |
| 20260504081323 | 54 | 37 | 3.0 | 6.0 | 0.00 | 0.00 | 0.00 | 52 | 1022.5 |
| 20260504080825 | 53 | 257 | 2.0 | 5.0 | 0.00 | 0.00 | 0.00 | 53 | 1022.6 |
| 20260504080314 | 53 | 304 | 3.0 | 5.0 | 0.00 | 0.00 | 0.00 | 53 | 1022.6 |
| 20260504070329 | 48 | 38 | 2.0 | 6.0 | 0.00 | 0.00 | 0.00 | 57 | 1022.8 |